C/2003 V1 ( LINEAR )

Japanese version
Home page
Total 6,336 html files since Dec. 4, 1995
Updated on July 17, 2004

---------------------------------------------------------------------

* Profile

Discovery Date November 4, 2003
Magnitude 18.1 mag
Discoverer Lincoln Laboratory Near-Earth Asteroid Research project

* Orbital Elements

Epoch 2003 Mar. 22.0 TT = JDT 2452720.5
T 2003 Mar. 11.18143 TT                                 MPC
q   1.7824663            (2000.0)            P               Q
z  +0.0016800      Peri.    8.59250     +0.83268703     -0.51270025
 +/-0.0000351      Node    25.84964     +0.47525741     +0.46779186
e   0.9970055      Incl.   28.67483     +0.28418780     +0.71993696
>From 341 observations 2003 Nov. 4-2004 Feb. 1, mean residual 0".67.

* Finding Charts

* Magnitudes Graph

        m1 = 9.3 + 5 log d + 7.5 log r

---------------------------------------------------------------------

The orbital elements are published on M.P.E.C. 2004-C06.
The charts are made with StellaNavigator Ver.2.0 for Windows (AstroArts / ASCII).
The magnitudes graphs are made with Comet for Windows.

---------------------------------------------------------------------

Copyright(C) 1995-2008 Seiichi Yoshida (comet@aerith.net). All rights reserved.